When you browse on this site, cookies collect data to enhance your experience and personalize the content and advertising you see.
Visit our Privacy Policy to learn more. By continuing to use the site, you agree to this use of cookies and data.
  • In Österreich
  • Länderverzeichnis
  • Für 7 Tage
  • Wassertemperatur
  • Satellitenkarten
  • Wetterkarte
  • News
  • Widgets
  • user-avatar
    Anmelden

    Stündliche Wetter Leipzig

    Heute, 21 Januar, Montag

    Zeit Temperatur Niederschläge Wind Luftdruck Luftfeuchtigkeit
    00:00 -3°C° 0 mm 1 m/S 756 mmHg 75%
    01:00 -4°C° 0 mm 0 m/S 756 mmHg 75%
    02:00 -4°C° 0 mm 0 m/S 756 mmHg 75%
    03:00 -4°C° 0 mm 0 m/S 756 mmHg 74%
    04:00 -4°C° 0 mm 0 m/S 756 mmHg 74%
    05:00 -4°C° 0 mm 0 m/S 756 mmHg 74%
    06:00 -4°C° 0 mm 0 m/S 756 mmHg 74%
    07:00 -4°C° 0 mm 0 m/S 756 mmHg 74%
    08:00 -4°C° 0 mm 0 m/S 756 mmHg 71%
    09:00 -2°C° 0 mm 1 m/S 756 mmHg 68%
    10:00 -2°C° 0 mm 1 m/S 757 mmHg 64%
    11:00 -1°C° 0 mm 1 m/S 756 mmHg 60%
    12:00 0°C° 0 mm 1 m/S 756 mmHg 56%
    13:00 +1°C° 0 mm 1 m/S 755 mmHg 51%
    14:00 0°C° 0 mm 1 m/S 755 mmHg 54%
    15:00 0°C° 0 mm 1 m/S 755 mmHg 56%
    16:00 0°C° 0 mm 1 m/S 754 mmHg 58%
    17:00 -1°C° 0 mm 1 m/S 754 mmHg 61%
    18:00 -1°C° 0 mm 1 m/S 754 mmHg 64%
    19:00 -4°C° 0 mm 2 m/S 754 mmHg 67%
    20:00 -4°C° 0 mm 2 m/S 754 mmHg 69%
    21:00 -4°C° 0 mm 2 m/S 754 mmHg 71%
    22:00 -4°C° 0 mm 2 m/S 753 mmHg 74%
    23:00 -4°C° 0 mm 2 m/S 753 mmHg 75%

    Morgen, 22 Januar, Dienstag

    Zeit Temperatur Niederschläge Wind Luftdruck Luftfeuchtigkeit
    00:00 -5°C° 0 mm 3 m/S 753 mmHg 75%
    01:00 -5°C° 0 mm 3 m/S 752 mmHg 76%
    02:00 -6°C° 0 mm 3 m/S 752 mmHg 75%
    03:00 -6°C° 0 mm 3 m/S 751 mmHg 75%
    04:00 -6°C° 0 mm 3 m/S 751 mmHg 74%
    05:00 -6°C° 0 mm 3 m/S 750 mmHg 73%
    06:00 -6°C° 0 mm 3 m/S 750 mmHg 73%
    07:00 -6°C° 0 mm 3 m/S 749 mmHg 72%
    08:00 -6°C° 0 mm 3 m/S 749 mmHg 70%
    09:00 -5°C° 0 mm 3 m/S 749 mmHg 67%
    10:00 -5°C° 0 mm 4 m/S 748 mmHg 64%
    11:00 -4°C° 0 mm 3 m/S 747 mmHg 60%
    12:00 -2°C° 0 mm 3 m/S 747 mmHg 56%
    13:00 0°C° 0 mm 3 m/S 746 mmHg 52%
    14:00 -1°C° 0 mm 3 m/S 745 mmHg 55%
    15:00 -1°C° 0 mm 3 m/S 745 mmHg 58%
    16:00 -1°C° 0 mm 2 m/S 744 mmHg 61%
    17:00 -2°C° 0 mm 2 m/S 743 mmHg 66%
    18:00 -3°C° 0 mm 2 m/S 743 mmHg 71%
    19:00 -3°C° 0 mm 2 m/S 743 mmHg 76%
    20:00 -3°C° 0 mm 2 m/S 743 mmHg 76%
    21:00 -4°C° 0 mm 2 m/S 742 mmHg 77%
    22:00 -4°C° 0 mm 2 m/S 742 mmHg 78%
    23:00 -4°C° 0 mm 2 m/S 742 mmHg 76%

    übermorgen, 23 Januar, Mittwoch

    Zeit Temperatur Niederschläge Wind Luftdruck Luftfeuchtigkeit
    00:00 -4°C° 0 mm 2 m/S 742 mmHg 75%
    01:00 -4°C° 0 mm 2 m/S 741 mmHg 73%
    02:00 -4°C° 0 mm 2 m/S 741 mmHg 72%
    03:00 -5°C° 0 mm 2 m/S 741 mmHg 71%
    04:00 -5°C° 0 mm 2 m/S 740 mmHg 71%
    05:00 -5°C° 0 mm 2 m/S 740 mmHg 72%
    06:00 -5°C° 0 mm 2 m/S 740 mmHg 73%
    07:00 -5°C° 0 mm 2 m/S 740 mmHg 74%
    08:00 -5°C° 0 mm 2 m/S 741 mmHg 71%
    09:00 -2°C° 0 mm 1 m/S 741 mmHg 68%
    10:00 -2°C° 0 mm 1 m/S 741 mmHg 66%
    11:00 -1°C° 0 mm 1 m/S 741 mmHg 63%
    12:00 -2°C° 0 mm 2 m/S 741 mmHg 60%
    13:00 -1°C° 0 mm 2 m/S 741 mmHg 57%
    14:00 -1°C° 0 mm 2 m/S 741 mmHg 60%
    15:00 -1°C° 0 mm 2 m/S 741 mmHg 62%
    16:00 -2°C° 0 mm 2 m/S 741 mmHg 65%
    17:00 -2°C° 0 mm 2 m/S 742 mmHg 67%
    18:00 -3°C° 0 mm 2 m/S 743 mmHg 69%
    19:00 -3°C° 0 mm 2 m/S 743 mmHg 71%
    20:00 -3°C° 0 mm 2 m/S 743 mmHg 71%
    21:00 -4°C° 0 mm 2 m/S 744 mmHg 70%
    22:00 -2°C° 0 mm 1 m/S 744 mmHg 70%
    23:00 -2°C° 0 mm 1 m/S 745 mmHg 71%

    24 Januar, Donnerstag

    Zeit Temperatur Niederschläge Wind Luftdruck Luftfeuchtigkeit
    00:00 -2°C° 0 mm 1 m/S 745 mmHg 72%
    01:00 -2°C° 0 mm 1 m/S 745 mmHg 73%
    02:00 -2°C° 0 mm 1 m/S 745 mmHg 73%
    03:00 -2°C° 0 mm 1 m/S 746 mmHg 73%
    04:00 -2°C° 0 mm 1 m/S 746 mmHg 73%
    05:00 -2°C° 0 mm 1 m/S 746 mmHg 74%
    06:00 -2°C° 0 mm 1 m/S 747 mmHg 74%
    07:00 -3°C° 0 mm 0 m/S 747 mmHg 75%
    08:00 -2°C° 0 mm 1 m/S 747 mmHg 74%
    09:00 -1°C° 0 mm 1 m/S 748 mmHg 73%
    10:00 -1°C° 0 mm 1 m/S 748 mmHg 71%
    11:00 0°C° 0 mm 1 m/S 748 mmHg 68%
    12:00 0°C° 0 mm 1 m/S 748 mmHg 66%
    13:00 +1°C° 0 mm 1 m/S 748 mmHg 63%
    14:00 +1°C° 0 mm 1 m/S 748 mmHg 63%
    15:00 +1°C° 0 mm 1 m/S 749 mmHg 64%
    16:00 +1°C° 0 mm 1 m/S 749 mmHg 65%
    17:00 0°C° 0 mm 1 m/S 749 mmHg 66%
    18:00 0°C° 0 mm 1 m/S 749 mmHg 67%
    19:00 0°C° 0 mm 1 m/S 750 mmHg 69%
    20:00 0°C° 0 mm 1 m/S 750 mmHg 72%
    21:00 -1°C° 0 mm 1 m/S 750 mmHg 74%
    22:00 -1°C° 0 mm 1 m/S 750 mmHg 77%
    23:00 -1°C° 0 mm 1 m/S 750 mmHg 78%

    25 Januar, Freitag

    Zeit Temperatur Niederschläge Wind Luftdruck Luftfeuchtigkeit
    00:00 -1°C° 0 mm 1 m/S 750 mmHg 78%
    01:00 -4°C° 0 mm 2 m/S 751 mmHg 79%
    02:00 -4°C° 0 mm 2 m/S 750 mmHg 80%
    03:00 -4°C° 0 mm 2 m/S 750 mmHg 81%
    04:00 -4°C° 0 mm 2 m/S 750 mmHg 83%
    05:00 -4°C° 0 mm 2 m/S 751 mmHg 84%
    06:00 -5°C° 0 mm 2 m/S 751 mmHg 85%
    07:00 -5°C° 0 mm 2 m/S 751 mmHg 86%
    08:00 -4°C° 0 mm 2 m/S 751 mmHg 84%
    09:00 -3°C° 0 mm 2 m/S 751 mmHg 81%
    10:00 -3°C° 0 mm 2 m/S 752 mmHg 79%
    11:00 -2°C° 0 mm 2 m/S 752 mmHg 75%
    12:00 -1°C° 0 mm 2 m/S 752 mmHg 71%
    13:00 +1°C° 0 mm 2 m/S 752 mmHg 68%
    14:00 +2°C° 0 mm 1 m/S 751 mmHg 69%
    15:00 +1°C° 0 mm 1 m/S 751 mmHg 71%
    16:00 +1°C° 0 mm 1 m/S 751 mmHg 73%
    17:00 +1°C° 0 mm 1 m/S 751 mmHg 74%
    18:00 -2°C° 0 mm 2 m/S 751 mmHg 76%
    19:00 -3°C° 0 mm 2 m/S 752 mmHg 78%
    20:00 -3°C° 0 mm 2 m/S 752 mmHg 80%
    21:00 -3°C° 0 mm 2 m/S 752 mmHg 82%
    22:00 -4°C° 0 mm 3 m/S 752 mmHg 83%
    23:00 -4°C° 0 mm 3 m/S 751 mmHg 84%

    26 Januar, Samstag

    Zeit Temperatur Niederschläge Wind Luftdruck Luftfeuchtigkeit
    00:00 -4°C° 0 mm 3 m/S 751 mmHg 85%
    01:00 -4°C° 0 mm 3 m/S 751 mmHg 86%
    02:00 -4°C° 0 mm 4 m/S 750 mmHg 86%
    03:00 -4°C° 0 mm 4 m/S 750 mmHg 85%
    04:00 -4°C° 0 mm 4 m/S 749 mmHg 85%
    05:00 -5°C° 0 mm 5 m/S 749 mmHg 85%
    06:00 -4°C° 0 mm 5 m/S 748 mmHg 86%
    07:00 -4°C° 0 mm 5 m/S 748 mmHg 86%
    08:00 -2°C° 0 mm 5 m/S 747 mmHg 84%
    09:00 -1°C° 0 mm 5 m/S 747 mmHg 82%
    10:00 -1°C° 0 mm 6 m/S 747 mmHg 80%
    11:00 +1°C° 0 mm 5 m/S 746 mmHg 78%
    12:00 +2°C° 0 mm 5 m/S 745 mmHg 77%
    13:00 +3°C° 0 mm 5 m/S 745 mmHg 75%
    14:00 +3°C° 0 mm 5 m/S 744 mmHg 78%
    15:00 +3°C° 0 mm 5 m/S 743 mmHg 81%
    16:00 +3°C° 0 mm 4 m/S 743 mmHg 84%
    17:00 +2°C° 0 mm 5 m/S 742 mmHg 85%
    18:00 +1°C° 0 mm 5 m/S 741 mmHg 86%
    19:00 +1°C° 0 mm 5 m/S 741 mmHg 87%
    20:00 +1°C° 0 mm 5 m/S 740 mmHg 87%
    21:00 +1°C° 0 mm 6 m/S 740 mmHg 86%
    22:00 +1°C° 0 mm 6 m/S 739 mmHg 85%
    23:00 +1°C° 0 mm 6 m/S 738 mmHg 85%
    Mehr zeigen